Hauptseite
METAR-TAF:

METAR-TAF

Flughäfen :

San Juan, Puerto Rico, Vereinigte Staaten

Breite: 18-27-24N, Länge: 066-05-54W, Höhe: 3 m

Beobachtung

Neuester Wetterbericht von vor 8 Stunden und 15 Minuten, um 22:50 UTC
Wind 8 kt aus Südost
Temperatur 27°C
Luftfeuchtigkeit 66%
Luftdruck 1019 hPa
Sichtweite: 16.1 km
Aufgelockert bewölkt in der Höhe von 3500 ft

METAR: TJIG 092250Z 13008KT 10SM SCT035 27/20 A3008

Zeit: 03:05 (07:05 UTC)


TAF: fehlend

Wetterbeobachtungen und Prognosen von mehr als 4000 Flughäfen (METAR und TAF Bericht).

Die verfügbaren Stationen werden durch gelbe und rote Markierungen auf der Karte dargestellt.

Führen Sie die Maus auf sie, um den Namen der Station zu sehen.

Darauf klicken, um die Beobachtung von Wetterbeobachtungen und Prognosen zu sehen.

Um die Karte zu ändern : klicken Sie auf den grünen Tasten mit einem schwarzen Kreuz Zum Vergrößern, auf den grünen Button mit einem Gedankenstrich zu verkleinern, oder auf die grünen Pfeile für benachbarte Karten.


METAR-TAF: